Location: Chameregg
(49.2110°N, 12.7109°E)
Time: 07:36:21
(UTC+00:00)

Daily predictions for brighter satellites

Satellite Brightness Start Highest point End
(mag) Time Altitude Azimuth Time Altitude Azimuth Time Altitude Azimuth
Cosmos 2369 Rocket 3.7 16:18:39 10° WSW 16:23:50 36° NW 16:29:05 10° NNE
Cosmos 2297 Rocket 2.7 16:19:10 10° NNW 16:24:32 41° NE 16:29:51 10° ESE
ERS-2 2.7 16:21:35 10° NNE 16:25:02 38° E 16:28:26 10° S
Aureole 3 Rocket 4.4 16:22:07 10° SE 16:25:26 23° E 16:29:36 10° NNE
Meteor 1-11 4.3 16:20:02 10° N 16:25:46 70° ENE 16:31:31 10° SSE
COSMOS 2487 3.6 16:24:46 10° NNW 16:28:07 48° WSW 16:31:26 10° S
Cosmos 1340 3.8 16:25:39 10° NNE 16:28:46 24° ENE 16:31:53 10° ESE
COSMO-SKYMED 1 3.7 16:27:23 10° NE 16:30:55 24° E 16:34:26 10° SSE
CORIOLIS 4.1 16:26:37 10° SSE 16:31:57 81° ENE 16:37:21 10° NNW
FengYun 1-2 T 4.3 16:27:30 10° SSE 16:33:05 66° ENE 16:38:41 10° N
H-2A R/B 2.2 16:28:54 10° NNE 16:33:05 74° WNW 16:37:11 10° SSW
Cosmos 1110 Rocket 4.1 16:29:10 10° S 16:34:19 61° ESE 16:39:29 10° NNE
NOSS 2-2 (C) 4.4 16:31:50 10° NW 16:37:05 68° NE 16:44:26 10° SE
Lacrosse 5 2.9 16:34:32 10° W 16:39:15 37° NNW 16:43:59 10° ENE
Timation 2 Rocket 4.1 16:33:04 10° NNW 16:39:39 77° ENE 16:46:28 10° SE
Cosmos 1825 Rocket 3.5 16:35:56 10° N 16:40:26 82° E 16:44:51 10° SSE
ADEOS Rocket 3.5 16:36:47 10° NNE 16:43:06 75° WNW 16:50:08 10° SSW
Envisat 4.1 16:38:30 10° S 16:43:25 50° W 16:48:23 10° NNW
Cosmos 292 Rocket 4.0 16:39:00 10° S 16:43:37 50° ESE 16:48:17 10° NNE
Aureole 3 3.8 16:41:43 10° SE 16:44:13 22° E 16:46:38 10° NE
Meteor 2-21 Rocket 4.4 16:39:01 10° N 16:45:14 75° ENE 16:51:21 10° SSE
Okean O Rocket 2.1 16:41:08 10° S 16:45:29 65° WSW 16:49:50 10° NNW
FALCON 9 DEB 3.8 16:42:44 10° WNW 16:46:02 42° N 16:48:52 13° ENE
YAOGAN 1 3.6 16:43:54 10° ESE 16:47:27 26° ENE 16:51:02 10° N
USA 281 3.7 16:41:42 10° SSE 16:48:13 67° WSW 16:54:47 10° NNW
ERBS 4.1 16:45:37 10° WNW 16:48:21 22° N 16:51:05 10° NE
FALCON 9 DEB 3.8 16:45:43 10° SSW 16:48:43 36° SE 16:51:05 14° E
FALCON 9 DEB 3.6 16:49:55 10° SW 16:52:57 40° SSE 16:55:10 16° E
CZ-2C R/B 3.8 16:48:34 10° SE 16:53:46 36° ENE 16:58:49 10° N
Feng Yun 1-1 Rocket 4.4 16:47:52 10° SSE 16:53:46 75° ENE 16:59:42 10° NNW
SMAP 3.9 16:49:49 10° S 16:54:23 55° W 16:58:59 10° NNW
Cosmos 2219 3.2 16:49:12 10° NNW 16:54:57 67° ENE 17:00:41 10° SE
Cosmos 1455 3.8 16:54:26 10° ESE 16:56:10 15° E 16:56:10 15° E
Cosmos 1726 Rocket 3.5 16:53:14 10° S 16:57:32 67° E 17:01:55 10° NNE
Cosmos 1943 Rocket 4.5 16:54:38 10° WNW 16:58:14 17° NW 17:01:50 10° N
Cosmos 1553 Rocket 4.3 16:54:39 10° SSE 17:00:33 42° E 17:06:24 10° NNE
USA 307 3.1 16:57:18 10° WNW 17:01:33 57° NNE 17:04:41 17° E
Meteor 2-10 Rocket 4.3 16:59:03 10° SSE 17:03:30 28° E 17:07:51 10° NNE
Cosmos 2082 4.2 16:58:08 10° NNW 17:03:31 39° NE 17:08:49 10° ESE
Cosmos 2228 3.1 17:00:23 10° SSW 17:04:37 78° W 17:08:56 10° N
FALCON 9 DEB 3.4 17:01:47 10° SW 17:04:56 48° SSE 17:06:44 21° E
CZ-4B R/B 1.4 17:01:51 10° N 17:05:06 75° WNW 17:08:14 10° SSW
Cosmos 1939 Rocket 2.7 17:01:21 10° SSE 17:05:17 69° ENE 17:09:11 10° N
USA 308 3.1 17:02:09 10° WNW 17:06:24 59° NNE 17:09:20 19° E
ATLAS 5 CENTAUR R/B 3.7 17:05:25 10° WNW 17:08:47 20° NNW 17:12:30 10° NNE
CZ-4 R/B 4.4 17:05:43 10° SSE 17:09:49 62° ENE 17:13:57 10° N
Helios 1A Rocket 2.9 17:08:24 10° SSE 17:12:27 59° ENE 17:16:30 10° N
Cosmos 1606 Rocket 3.9 17:08:50 10° SSW 17:13:11 69° WNW 17:17:36 10° N
FALCON 9 DEB 3.0 17:13:22 10° SW 17:16:33 61° SSE 17:17:56 29° E
ARGOS 3.9 17:13:09 13° ESE 17:17:16 30° ENE 17:21:58 10° N
Okean-O 2.6 17:14:32 10° SSE 17:18:55 62° ENE 17:23:18 10° N
SKYMED 2 3.5 17:14:54 10° NNE 17:19:15 69° ESE 17:23:34 10° S
Cosmos 1689 Rocket 1.9 17:17:38 10° NNE 17:20:31 66° ESE 17:23:23 10° S
SL-08 R/B 4.4 17:15:11 10° N 17:21:23 71° ENE 17:27:28 10° SSE
Cosmos 1656 3.8 17:16:54 10° S 17:22:17 53° ESE 17:27:47 10° NE
Cosmos 1745 Rocket 4.1 17:18:22 10° N 17:24:34 56° ENE 17:30:47 10° SSE
Cosmos 1400 Rocket 2.7 17:20:48 10° S 17:24:54 80° E 17:29:00 10° NNE
H-2A R/B 2.4 17:21:37 10° SE 17:26:45 45° ENE 17:31:56 10° N
PSLV R/B 3.9 17:23:21 10° NNE 17:27:32 68° ESE 17:31:40 10° S
Ariane Rocket 4.3 17:27:38 20° ENE 17:27:42 20° ENE 17:31:21 10° NNE
GEOS 3 Rocket 3.8 17:24:33 18° ESE 17:28:24 59° NE 17:33:43 10° NW
Cosmos 2227 Rocket 2.2 17:23:13 10° NNW 17:28:55 89° ENE 17:34:35 10° SSE
CZ-4 R/B 1.1 17:25:23 10° SSE 17:29:15 70° ENE 17:33:06 10° N
Cosmos 2058 3.0 17:25:21 10° N 17:29:22 51° ENE 17:33:21 10° SSE
Cosmos 1892 2.6 17:26:50 10° N 17:30:43 74° E 17:34:36 10° SSE
Cosmos 2263 Rocket 3.3 17:29:47 10° NNW 17:34:24 24° NE 17:35:33 23° ENE
Cosmos 1408 2.6 17:31:20 10° N 17:34:56 53° ENE 17:37:15 20° SSE
CSL-04 Rocket 3.8 17:29:41 10° SE 17:35:03 53° ENE 17:40:24 10° N
BREEZE-M R/B 3.3 17:28:31 10° W 17:36:12 90° SSW 17:37:09 42° E
Cosmos 1386 Rocket 4.5 17:31:38 10° N 17:38:02 66° ENE 17:44:20 10° SSE
NOSS 3-4 (A) 4.2 17:34:15 10° NW 17:40:42 45° NE 17:44:11 28° E
NOSS 3-4 (C) 4.2 17:34:21 10° NW 17:40:48 44° NE 17:44:16 28° E
CZ-4C R/B 3.8 17:35:29 10° NW 17:41:11 30° NNE 17:44:25 22° ENE
Meteor 2-1 Rocket 4.2 17:36:27 10° S 17:41:45 52° E 17:47:07 10° NNE
Cosmos 1300 4.3 17:39:49 10° SW 17:43:22 36° WNW 17:46:56 10° N
Cosmos 2058 Rocket 3.6 17:42:09 10° SSW 17:46:35 63° WNW 17:51:05 10° N
Cosmos 1697 Rocket 2.9 17:41:34 10° S 17:46:53 46° ESE 17:49:37 26° NE
SeaSat 1 2.7 17:46:28 35° ESE 17:48:07 49° NE 17:52:53 10° NNW
CZ-2D R/B 4.0 17:44:33 10° S 17:48:15 53° W 17:52:01 10° NNW
SL-4 R/B 1.8 17:44:55 10° WNW 17:48:29 66° N 17:49:04 55° ENE
Cosmos 1346 Rocket 2.7 17:45:39 10° NNW 17:49:40 89° ENE 17:53:39 10° S
CRYOSAT 2 4.3 17:46:43 10° N 17:51:34 61° E 17:56:21 10° S
NOSS 3-3 (A) 4.1 17:46:08 10° SSW 17:51:41 48° ESE 17:54:18 31° ENE
NOSS 3-3 (C) 4.1 17:46:13 10° SSW 17:51:49 48° ESE 17:54:24 31° ENE
Cosmos 1825 2.3 17:48:11 10° N 17:51:38 53° ENE 17:51:38 53° ENE
USA 305 2.8 17:48:00 10° WNW 17:52:20 89° SW 17:53:27 49° ESE
Cosmos 1709 Rocket 4.1 17:48:05 10° N 17:54:21 55° ENE 17:59:42 14° SSE
USA 215 3.6 17:51:39 30° ENE 17:54:45 54° NNE 18:01:05 10° WNW
Cosmos 44 4.0 17:51:10 10° WSW 17:55:36 49° NW 17:59:04 17° NNE
Cosmos 1315 Rocket 2.7 17:52:09 10° S 17:56:03 62° E 17:56:20 60° ENE
SJ-11-01 4.1 17:53:43 12° SSE 17:57:59 78° ENE 18:02:40 10° NNW
USA 306 2.8 17:54:25 10° WNW 17:58:43 84° SSW 17:59:35 56° SE
BREEZE-M R/B 3.7 17:58:14 10° W 18:02:23 87° SSW 18:05:18 37° ESE
ATLAS 2AS CENTAUR R/B 3.2 17:55:31 10° NW 18:02:54 48° NNE 18:05:17 36° E
Cosmos 968 Rocket 4.1 17:59:01 10° NNW 18:04:09 57° WSW 18:09:12 10° S
HJ-1C 4.4 18:07:28 38° NNW 18:07:28 38° NNW 18:09:40 10° NNW
COSMO-SKYMED 1 3.8 18:03:08 10° N 18:07:14 41° WNW 18:11:19 10° SW
MOS 1 Rocket 3.2 18:03:28 10° NNE 18:08:08 73° ESE 18:13:04 10° S
Cosmos 2297 Rocket 3.5 18:03:20 10° NW 18:08:35 40° WSW 18:13:49 10° S
Cosmos 1980 Rocket 3.3 18:04:27 10° S 18:07:19 27° SSE 18:07:19 27° SSE
Cosmos 1076 Rocket 3.4 18:05:23 10° N 18:09:39 83° W 18:11:35 32° S
Cosmos 1777 Rocket 4.5 18:06:19 10° NNW 18:10:51 42° NE 18:10:51 42° NE
Cosmos 883 Rocket 4.4 18:05:27 10° S 18:11:30 63° E 18:17:34 10° NNE
CSL-04 Debris 4.3 18:10:05 10° S 18:15:31 74° WSW 18:21:01 10° NNW
Cosmos 2315 Rocket 4.0 18:09:31 10° SSE 18:15:32 56° E 18:21:36 10° NNE
S3M 4.0 18:09:58 10° SSW 18:16:06 80° W 18:22:19 10° N
Lacrosse 5 2.7 18:18:28 10° WNW 18:23:12 37° NNE 18:23:30 37° NNE
YAOGAN 1 3.9 18:19:20 10° SSW 18:23:23 39° W 18:27:29 10° NNW
Cosmos 2360 4.1 18:20:01 10° SSW 18:25:43 69° ESE 18:26:15 65° ENE
Cosmos 1812 Rocket 3.7 18:26:34 10° SSW 18:35:45 - N 18:30:37 68° WSW
Cosmos 1455 3.2 18:28:07 10° SSW 18:31:13 44° WSW 18:31:13 44° WSW
CZ-2C R/B 4.4 18:28:01 10° S 18:33:31 44° W 18:38:54 10° NNW
Meteor 2-3 Rocket 4.0 18:30:06 10° N 18:34:44 51° NNE 18:34:44 51° NNE
USA 307 3.9 18:37:28 10° WNW 18:40:52 43° WSW 18:40:52 43° WSW
USA 308 4.1 18:42:19 10° WNW 18:45:31 39° WSW 18:45:31 39° WSW
ATLAS 5 CENTAUR R/B 4.0 18:51:58 10° NNW 18:55:01 17° N 18:55:01 17° N
ARGOS 4.0 18:54:41 27° SSW 18:57:20 48° W 19:02:36 10° NNW
Cosmos 2369 4.1 18:57:02 10° SW 19:02:42 62° WNW 19:03:11 60° NNW
Ariane Rocket 4.0 19:07:51 42° NNW 19:07:51 42° NNW 19:11:16 10° NNW
H-2A R/B 3.8 19:01:31 10° SSW 19:06:18 32° W 19:11:10 10° NNW
Cosmos 2263 Rocket 3.0 19:13:17 10° NNW 19:17:16 47° NW 19:17:16 47° NW
SeaSat 1 4.1 19:26:15 30° W 19:26:15 30° W 19:30:09 10° NW
CZ-4C R/B 3.2 19:23:58 10° NW 19:29:36 58° N 19:29:36 58° N
Cosmos 1697 Rocket 4.0 19:25:49 10° WSW 19:30:59 36° NW 19:31:25 36° NW
NOSS 3-4 (A) 4.1 19:25:07 10° NW 19:31:39 63° WSW 19:31:39 63° WSW
NOSS 3-4 (C) 4.1 19:25:13 10° NW 19:31:43 64° WSW 19:31:43 64° WSW
USA 215 3.7 19:39:00 58° WNW 19:39:00 58° WNW 19:44:11 10° WNW
ATLAS 2AS CENTAUR R/B 3.5 19:46:50 10° NW 19:52:43 50° W 19:52:43 50° W
Lacrosse 5 4.5 20:01:37 10° NW 20:02:41 16° NW 20:02:41 16° NW
